Location: Platte
(43.3870°N, 98.8440°W)
Time: 04:08:11
(UTC-05:00)

Landsat 7 - Visible Passes

Search period start: 27 April 2015 00:00
Search period end: 07 May 2015 00:00
Orbit: 702 x 703 km, 98.2° (Epoch: 26 April)

Date Brightness Start Highest point End Pass type
(mag) Time Alt. Az. Time Alt. Az. Time Alt. Az.
27 Apr 4.3 22:40:28 38° E 22:41:16 42° ENE 22:45:45 10° N visible
28 Apr 5.7 00:19:21 22° W 00:19:21 22° W 00:22:52 10° NW visible
28 Apr 5.8 21:44:47 11° E 21:46:43 14° ENE 21:49:13 10° NNE visible
28 Apr 3.7 23:23:39 73° SW 23:23:56 76° WSW 23:28:43 10° NNW visible
29 Apr 4.7 22:27:58 28° E 22:29:07 32° ENE 22:33:22 10° N visible
30 Apr 5.3 00:06:51 29° W 00:06:54 29° W 00:11:00 10° NW visible
30 Apr 6.0 21:33:45 10° ENE 21:34:40 11° ENE 21:35:51 10° NE visible
30 Apr 3.7 23:11:09 68° SSE 23:11:44 83° ENE 23:16:31 10° NNW visible
01 May 6.4 00:50:02 11° W 00:50:14 11° W 00:51:14 10° WNW visible
01 May 5.1 22:15:28 21° E 22:16:59 25° ENE 22:20:55 10° N visible
01 May 4.8 23:54:20 37° WSW 23:54:36 37° W 23:59:01 10° NNW visible
02 May 3.9 22:58:39 52° ESE 22:59:32 63° ENE 23:04:16 10° N visible
03 May 6.1 00:37:32 15° W 00:37:49 15° W 00:40:20 10° WNW visible
03 May 5.4 22:02:57 16° E 22:04:53 20° ENE 22:08:22 10° NNE visible
03 May 4.3 23:41:50 47° WSW 23:42:20 49° W 23:46:58 10° NNW visible
04 May 4.2 22:46:09 38° ESE 22:47:22 48° ENE 22:51:58 10° N visible
05 May 5.8 00:25:01 19° W 00:25:26 19° W 00:28:46 10° NW visible
05 May 5.7 21:50:27 11° E 21:52:48 16° ENE 21:55:40 10° NNE visible
05 May 4.0 23:29:20 56° SSW 23:30:05 66° W 23:34:51 10° NNW visible
06 May 4.6 22:33:38 28° ESE 22:35:12 37° ENE 22:39:36 10° N visible
